This is the latest recevied weather packets stored in our database for station/object VA2EYZ-13. If no packets are shown the sender has not sent any weather packets the latest 10 day(s).
| Time | Temp. | Humidity | Pressure | Rain* | Wind** | Luminosity | Snow |
|---|---|---|---|---|---|---|---|
| 1788050838 | 20° C | 58% | 1018 hPa | - | - | - | - |
| 1788049488 | 20.56° C | 58% | 1018 hPa | - | - | - | - |
| 1788048751 | 20.56° C | 57% | 1018 hPa | - | - | - | - |
| 1788048296 | 21.11° C | 57% | 1018 hPa | - | - | - | - |
| 1788047427 | 21.11° C | 54% | 1018 hPa | - | - | - | - |
| 1788046992 | 21.11° C | 54% | 1018 hPa | - | - | - | - |
| 1788045769 | 21.11° C | 52% | 1018 hPa | - | - | - | - |
| 1788045438 | 21.67° C | 52% | 1018 hPa | - | - | - | - |
| 1788043447 | 22.22° C | 49% | 1018 hPa | - | - | - | - |
| 1788043025 | 22.22° C | 49% | 1018 hPa | - | - | - | - |
| 1788042232 | 22.22° C | 48% | 1018 hPa | - | - | - | - |
| 1788041641 | 22.78° C | 48% | 1018 hPa | - | - | - | - |
| 1788041078 | 23.33° C | 48% | 1019 hPa | - | - | - | - |
| 1788040189 | 23.33° C | 48% | 1019 hPa | - | - | - | - |
| 1788039532 | 23.33° C | 49% | 1019 hPa | - | - | - | - |
| 1788039179 | 23.33° C | 49% | 1019 hPa | - | - | - | - |
| 1788038787 | 23.33° C | 49% | 1019.3 hPa | - | - | - | - |
| 1788038497 | 23.33° C | 49% | 1019 hPa | - | - | - | - |
| 1788037895 | 23.33° C | 49% | 1019 hPa | - | - | - | - |
| 1788037170 | 23.33° C | 46% | 1019 hPa | - | - | - | - |
| 1788035111 | 23.33° C | 47% | 1019 hPa | - | - | - | - |
| 1788034284 | 23.33° C | 46% | 1019 hPa | - | - | - | - |
| 1788032630 | 23.89° C | 48% | 1020 hPa | - | - | - | - |
| 1788030690 | 23.33° C | 48% | 1020 hPa | - | - | - | - |
| 1788030268 | 23.33° C | 48% | 1020 hPa | - | - | - | - |
* Rain since midnight (hover to see other rain measurements)
** Current wind speed in m/s (hover to see current wind gust speed)